Location: Dubenec
(49.1151°N, 14.2960°E)
Time: 09:59:09
(UTC+00:00)

Daily predictions for brighter satellites

Satellite Brightness Start Highest point End
(mag) Time Altitude Azimuth Time Altitude Azimuth Time Altitude Azimuth
BlueWalker 3 2.5 16:32:10 10° W 16:35:56 48° N 16:39:44 10° ENE
RESURS DK-1 3.2 16:32:17 10° NNW 16:35:57 29° NE 16:39:34 10° ESE
DELTA 2 DEB (DPAF) 4.3 16:33:28 10° NNE 16:37:47 54° E 16:42:05 10° S
CORIOLIS 4.5 16:32:33 10° S 16:37:58 76° WSW 16:43:24 10° NNW
Cosmos 1340 4.3 16:36:32 10° NNE 16:38:39 15° ENE 16:40:47 10° E
Meteor 1-21 Rocket 4.2 16:33:34 10° S 16:39:11 71° E 16:44:45 10° NNE
Cosmos 1703 4.2 16:35:50 10° SSW 16:39:33 49° WNW 16:43:18 10° N
SL-16 R/B 2.5 16:34:54 10° S 16:40:20 50° ESE 16:45:49 10° NE
SKYMED 2 4.2 16:39:13 10° NNE 16:43:14 35° E 16:47:12 10° SSE
Cosmos 407 Rocket 3.5 16:38:07 10° SSW 16:43:16 89° ESE 16:48:26 10° NNE
Cosmos 724 4.4 16:37:21 10° SW 16:43:18 88° SE 16:49:27 10° NE
SL-4 R/B 1.9 16:40:31 10° W 16:43:56 55° N 16:47:32 10° ENE
Cosmos 1607 4.3 16:39:09 10° SW 16:45:15 68° NW 16:51:28 10° NE
ISS -1.6 16:43:30 10° W 16:46:28 28° SW 16:49:25 10° SSE
BREEZE M DEB (TANK) 4.0 16:40:41 10° WNW 16:47:19 48° SSW 16:50:07 10° SE
Cosmos 2058 Rocket 4.2 16:44:05 10° NNE 16:47:33 22° ENE 16:51:01 10° ESE
Meteor 2-1 Rocket 4.2 16:42:47 10° N 16:48:36 81° ENE 16:54:15 10° SSE
Cosmos 1184 Rocket 3.4 16:47:01 10° NNW 16:49:14 40° W 16:51:26 10° S
Cosmos 1140 Rocket 3.8 16:44:05 10° SSW 16:49:15 71° WNW 16:54:25 10° NNE
CZ-2C R/B 4.3 16:45:39 10° N 16:50:39 36° WNW 16:55:41 10° SW
Cosmos 1980 Rocket 3.3 16:45:35 10° SW 16:51:01 45° NW 16:56:29 10° NNE
YAOGAN 1 3.5 16:49:00 10° ESE 16:52:37 27° ENE 16:56:16 10° N
USA 290 3.9 16:49:44 10° SW 16:52:41 33° WNW 16:55:40 10° N
CZ-4B R/B 2.8 16:53:21 10° SSE 16:57:24 87° WSW 17:01:15 10° NNW
APEX 4.3 16:54:11 10° SSW 17:00:15 88° ESE 17:05:48 10° NNE
Radarsat Rocket 4.3 16:54:41 10° SSE 17:00:48 85° WSW 17:07:41 10° NNW
Cosmos 2263 Rocket 4.3 16:56:05 10° NW 17:00:55 31° WSW 17:05:44 10° SSW
Genesis I 4.5 16:58:41 10° S 17:01:52 24° ESE 17:04:16 14° ENE
Cosmos 1536 Rocket 3.8 16:58:59 10° SSW 17:03:17 71° WNW 17:07:38 10° N
Cosmos 1340 Rocket 3.4 16:59:35 10° SSW 17:03:25 57° WNW 17:07:19 10° N
Cosmos 1190 Rocket 4.0 16:58:54 10° SSW 17:04:13 85° ESE 17:09:33 10° NNE
PAYLOAD B 4.4 16:59:03 10° SE 17:04:20 50° ENE 17:09:39 10° N
Cosmos 1633 3.2 17:01:38 10° SSE 17:04:33 28° E 17:07:29 10° NNE
DMSP B5D2-2 4.1 17:01:05 10° NNE 17:06:24 85° ESE 17:11:40 10° SSW
COSMOS 2455 4.0 17:00:47 10° WSW 17:06:25 40° NW 17:12:06 10° NNE
Cosmos 2228 3.4 17:03:22 10° NNW 17:07:34 67° W 17:11:45 10° S
Cosmos 2237 4.2 17:04:34 10° SSW 17:10:13 67° ESE 17:15:56 10° NNE
Cosmos 1408 3.0 17:07:59 10° SSW 17:11:21 61° WNW 17:14:47 10° N
Meteor 1-27 4.5 17:06:16 10° N 17:11:54 48° ENE 17:17:24 10° SE
Cosmos 1606 Rocket 3.4 17:09:29 10° N 17:13:49 81° ENE 17:18:09 10° SSE
Nadezhda 2 Rocket 4.4 17:11:22 10° N 17:17:33 69° ENE 17:23:38 10° SSE
Cosmos 1869 3.5 17:15:19 10° N 17:19:04 43° ENE 17:22:50 10° SSE
ATLAS CENTAUR R/B 3.2 17:16:12 10° W 17:20:18 30° NW 17:24:17 10° NNE
YAOGAN 3 4.5 17:19:58 10° SSE 17:24:19 80° ENE 17:28:41 10° NNW
Cosmos 1892 Rocket 3.6 17:23:28 10° S 17:27:47 55° E 17:32:05 10° NNE
Cosmos 468 Rocket 4.2 17:22:56 10° NNW 17:28:07 75° WSW 17:33:13 10° SSE
COSMO-SKYMED 1 2.7 17:26:58 10° NNE 17:31:19 79° WNW 17:35:40 10° SSW
Cosmos 1844 Rocket 2.8 17:25:44 10° NNW 17:31:20 77° WSW 17:36:53 10° SSE
PSLV R/B 3.5 17:27:46 10° SSE 17:31:24 66° ENE 17:35:07 10° N
USA 215 4.3 17:33:13 10° SSE 17:39:27 46° SW 17:45:43 10° WNW
Cosmos 1954 Rocket 4.3 17:36:05 10° SSW 17:41:19 70° WNW 17:46:33 10° NNE
Lacrosse 5 1.9 17:36:38 10° SW 17:41:46 87° NNW 17:44:53 24° NE
SJ-6B 4.1 17:43:06 24° NE 17:43:06 24° NE 17:45:33 10° N
CZ-4B R/B 3.1 17:37:22 10° SSE 17:42:42 70° ENE 17:48:09 10° NNW
Aureole 2 3.9 17:40:40 10° NNW 17:43:37 65° ENE 17:44:16 46° SE
Cosmos 1726 Rocket 4.0 17:41:15 10° NNW 17:45:32 63° W 17:49:48 10° S
Lacrosse 5 rocket 1.1 17:42:00 10° WNW 17:45:35 75° SW 17:47:25 27° SE
Cosmos 1461 3.0 17:42:17 10° SW 17:46:35 85° NW 17:49:26 22° NE
Cosmos 1892 4.1 17:43:55 10° SW 17:47:25 39° WNW 17:50:59 10° N
Cosmos 1814 Rocket 4.4 17:42:25 10° NNW 17:47:32 43° ENE 17:50:00 26° ESE
Spot 1 4.4 17:47:39 35° E 17:47:44 35° E 17:51:28 10° SSE
ATLAS 2AS CENTAUR R/B 3.7 17:41:32 10° NW 17:48:09 47° WSW 17:54:24 10° S
Cosmos 1844 4.1 17:44:48 10° NNW 17:50:33 66° WSW 17:56:15 10° SSE
Cosmos 1825 2.9 17:50:15 10° SSW 17:53:51 52° WNW 17:57:30 10° N
Cosmos 1850 Rocket 4.0 17:48:55 10° S 17:53:58 57° ESE 17:57:26 20° NE
Gblst 52 Del rocket 4.1 17:48:58 10° WSW 17:54:35 81° NNW 17:57:10 33° ENE
Cosmos 540 Rocket 4.1 17:49:51 10° NNW 17:54:54 56° WSW 17:59:54 10° S
Cosmos 2219 Rocket 2.5 17:50:11 10° S 17:55:25 43° ESE 17:57:33 30° ENE
Cosmos 2360 Rocket 2.1 17:50:20 10° SSW 17:55:59 88° ESE 18:01:12 13° NNE
Cosmos 841 Rocket 3.5 17:52:03 10° NNW 17:57:22 87° WSW 18:02:37 10° SSE
USA 81 4.2 17:55:15 10° SSE 18:00:14 45° E 18:05:15 10° NNE
CZ-4C R/B 4.4 17:57:07 10° N 18:00:46 43° WNW 18:04:14 10° SW
IRIDIUM 104 4.4 17:56:06 10° N 18:01:20 80° W 18:06:33 10° S
Cosmos 1626 Rocket 4.3 17:57:35 10° SSE 18:00:23 33° SE 18:00:23 33° SE
Cosmos 1745 Rocket 3.9 17:55:53 10° N 18:02:09 75° E 18:08:19 10° SSE
Cosmos 1741 Rocket 4.0 17:57:13 10° S 18:02:28 64° ESE 18:05:58 21° NNE
Cosmos 1386 Rocket 4.3 17:57:04 10° N 18:03:08 81° E 18:09:10 10° SSE
CZ-4 R/B 1.2 17:59:15 10° SSE 18:03:21 82° ENE 18:07:25 10° NNW
Okean O Rocket 1.5 18:01:04 10° SSE 18:05:27 79° ENE 18:09:55 10° NNW
Cosmos 2278 Rocket 2.9 18:00:25 10° NNW 18:05:32 33° NE 18:05:53 33° NE
Cosmos 2333 Rocket 2.1 18:02:05 10° SSW 18:07:43 74° ESE 18:11:22 23° NE
Cosmos 2322 Rocket 2.8 18:03:32 10° SW 18:09:01 56° WNW 18:14:35 10° NNE
Okean-O 4.1 18:11:23 23° NNE 18:11:23 23° NNE 18:13:25 10° N
MINOTAUR 4 R/B 4.1 18:12:48 50° N 18:13:35 72° WNW 18:16:58 10° SSW
RESURS DK-1 3.9 18:10:09 10° NW 18:13:56 35° WSW 18:17:40 10° S
Cosmos 1340 3.5 18:10:40 10° NNW 18:14:13 50° W 18:17:46 10° S
BlueWalker 3 2.3 18:11:11 10° WNW 18:14:55 51° N 18:14:55 51° N
Okean 1-7 Rocket 4.1 18:11:46 10° S 18:14:53 42° SSE 18:14:53 42° SSE
ATLAS 5 CENTAUR R/B 3.8 18:13:53 10° NNW 18:16:32 15° N 18:16:59 15° NNE
Cosmos 2369 Rocket 4.4 18:18:22 10° N 18:19:26 11° NNE 18:19:26 11° NNE
Cosmos 1709 Rocket 3.8 18:14:22 10° N 18:20:31 67° ENE 18:26:30 10° SSE
Cosmos 1606 3.0 18:17:48 10° N 18:20:57 58° N 18:20:57 58° N
Cosmos 1570 Rocket 4.2 18:17:00 10° NNW 18:22:12 51° ENE 18:22:12 51° ENE
COSMOS 2428 3.2 18:17:27 10° S 18:21:43 39° SE 18:21:43 39° SE
SL-4 R/B 2.0 18:19:51 10° WNW 18:22:54 63° WNW 18:22:54 63° WNW
SL-16 R/B 3.7 18:19:31 10° WSW 18:24:39 34° NW 18:29:50 10° NNE
CSL-04 Debris 4.0 18:23:09 40° SE 18:25:05 69° ENE 18:30:27 10° N
Cosmos 2058 Rocket 4.2 18:21:34 10° NNW 18:25:44 43° W 18:29:55 10° SSW
IGS 5A 3.3 18:26:03 77° S 18:26:20 87° WSW 18:30:29 10° NNW
Cosmos 1553 Rocket 4.5 18:21:23 10° SSW 18:27:23 59° WNW 18:33:30 10° N
Cosmos 2333 4.1 18:22:21 10° SSW 18:27:58 84° WNW 18:31:01 29° NNE
YAOGAN 1 4.1 18:24:34 10° SSW 18:28:34 36° W 18:32:35 10° NNW
CSL-04 Rocket 3.5 18:29:39 59° ESE 18:30:28 68° ENE 18:35:52 10° N
Feng Yun 1-1 Rocket 4.4 18:28:30 10° S 18:34:02 70° WSW 18:39:30 10° NNW
Genesis I 4.1 18:35:05 10° WSW 18:38:52 46° NW 18:38:52 46° NW
BREEZE-M DEB (TANK) 3.1 18:28:58 10° WSW 18:40:05 65° SSE 18:40:19 64° SSE
Cosmos 1943 Rocket 3.7 18:36:11 10° NNW 18:39:19 23° NNE 18:39:19 23° NNE
Cosmos 883 Rocket 4.4 18:36:51 10° S 18:43:07 82° E 18:49:30 10° N
Cosmos 2322 3.6 18:42:43 10° SSW 18:48:26 85° ESE 18:48:47 79° NE
Cosmos 44 Rocket 3.5 18:47:38 10° SW 18:51:44 63° W 18:51:44 63° W
ATLAS CENTAUR R/B 4.1 18:58:19 10° NW 19:00:12 12° NNW 19:00:39 12° N
Resurs 01 Rocket 4.4 19:22:58 11° NNW 19:22:58 11° NNW 19:23:09 10° NNW
Lacrosse 4 Rocket 4.3 19:16:32 10° NNW 19:16:37 10° NNW 19:16:37 10° NNW
Lacrosse 5 rocket 4.3 19:22:25 10° WSW 19:22:52 11° WSW 19:22:52 11° WSW
Cosmos 2315 Rocket 4.4 19:18:31 10° SSW 19:24:47 60° WNW 19:31:07 10° N
Lacrosse 5 3.3 19:20:28 10° W 19:24:05 34° NW 19:24:05 34° NW
Cosmos 2219 Rocket 3.4 19:34:16 10° WSW 19:39:20 38° NW 19:39:20 38° NW
Cosmos 2360 Rocket 4.3 19:36:23 10° W 19:40:46 22° NW 19:43:00 18° N
Cosmos 2278 Rocket 3.6 19:44:22 10° NW 19:47:46 34° NW 19:47:46 34° NW
Cosmos 2333 Rocket 4.0 19:47:54 10° W 19:52:35 26° NW 19:53:27 25° NNW
